Em Athens — V7US8 — position and weather

sailwx.info

Track history (hours):
 
Tides and Currents Weather Stations Pressure Air Temp Water Temp Dewpoint Dewpoint Depression Visibility Wind Speed Wind Dir Waves Ship Positions

Em Athens

Last reported at 2016-May-10 10:11 UTC. Time now 2016-May-25 22:42 UTC.
Position N 12°55' W 018°21'.
Warning: this ship's position is 15 days out of date.

Length 207 m; draft 11.5 m.

Type: Ship (hazmat cat C). MMSI: 538004019.

Date/timePositionNaut miles runAvg speedWind from/ knotsBaromVisibWave heightAir tempDewpointWater temp
2016-May-10 10:11N 12°55' W 018°21'1616.6
2016-May-10 09:14N 13°11' W 018°20'1417.0
2016-May-10 08:25N 13°25' W 018°19'11817.0
2016-May-10 01:26N 15°23' W 018°13'1416.1
2016-May-10 00:34N 15°37' W 018°12'  
2016-May-06 07:34N 35°58' W 005°32'7 0.4
2016-May-05 12:09N 36°02' W 005°24'6 9.6
2016-May-05 11:33N 36°07' W 005°25'1 0.1
2016-May-05 02:32N 36°08' W 005°25'0 0.0
2016-May-05 01:32N 36°08' W 005°25'0 0.0
2016-May-05 00:29N 36°08' W 005°25'1 1.1
2016-May-04 23:20N 36°08' W 005°24'3 3.6
2016-May-04 22:33N 36°06' W 005°22'4 4.2
2016-May-04 21:34N 36°05' W 005°17'21314.1
2016-May-04 06:29N 37°12' W 001°06'1515.8
2016-May-04 05:33N 37°22' W 000°52'1616.1
2016-May-04 04:33N 37°32' W 000°36'1615.8
2016-May-04 03:34N 37°45' W 000°25'1616.0
2016-May-04 02:34N 37°58' W 000°14'1615.6
2016-May-04 01:33N 38°12' W 000°03'1615.5
2016-May-04 00:33N 38°25' E 000°08'2116.0
2016-May-03 23:15N 38°42' E 000°22'4515.5
2016-May-03 20:21N 39°22' W 000°05'1114.0
2016-May-03 19:33N 39°26' W 000°18'1 1.5
2016-May-03 18:33N 39°27' W 000°19'0 0.0
2016-May-03 17:33N 39°27' W 000°19'0 0.0
2016-May-03 16:33N 39°27' W 000°19'0 0.0
2016-May-03 15:33N 39°27' W 000°19'0 0.0
2016-May-03 14:33N 39°27' W 000°19'0 0.0
2016-May-03 13:33N 39°27' W 000°19'0 0.0
2016-May-03 12:33N 39°27' W 000°19'0 0.0
2016-May-03 11:33N 39°27' W 000°19'0 0.0
2016-May-03 10:33N 39°27' W 000°19'0 0.0
2016-May-03 09:33N 39°27' W 000°19'0 0.0
2016-May-03 08:33N 39°27' W 000°19'0 0.0
2016-May-03 07:30N 39°27' W 000°19'0 0.0
2016-May-03 06:30N 39°27' W 000°19'0 0.0
2016-May-03 05:33N 39°27' W 000°19'0 0.0
2016-May-03 04:24N 39°27' W 000°19'0 0.4
2016-May-03 03:33N 39°27' W 000°19'5 4.1
2016-May-03 02:28N 39°23' W 000°16'0 0.0
2016-May-03 00:16N 39°23' W 000°16'0 0.0
2016-May-02 18:04N 39°23' W 000°16'0 0.0
2016-May-02 17:28N 39°23' W 000°16'0 0.0
2016-May-02 16:16N 39°23' W 000°16'0 0.0
2016-May-02 15:28N 39°23' W 000°16'0 0.0
2016-May-02 14:22N 39°23' W 000°16'0 0.0
2016-May-02 04:16N 39°23' W 000°16'0 0.0
2016-May-02 02:28N 39°23' W 000°16'0 0.0
2016-May-01 19:31N 39°23' W 000°16'0 0.0
2016-May-01 17:18N 39°23' W 000°16'0 0.0
2016-May-01 16:33N 39°23' W 000°16'0 0.0
2016-May-01 12:16N 39°23' W 000°16'1 0.2
2016-May-01 06:33N 39°23' W 000°14'7211.9
2016-May-01 00:31N 39°59' E 001°06'1614.2
2016-Apr-30 23:23N 40°12' E 001°18'4114.3
2016-Apr-30 20:33N 40°47' E 001°46'1514.3
2016-Apr-30 19:31N 40°59' E 001°57'  
Track history (hours):
 
Tides and Currents Weather Stations Pressure Air Temp Water Temp Dewpoint Dewpoint Depression Visibility Wind Speed Wind Dir Waves Ship Positions

Em Athens

Last reported at 2016-May-10 10:11 UTC. Time now 2016-May-25 22:42 UTC.
Position N 12°55' W 018°21'.
Warning: this ship's position is 15 days out of date.

Length 207 m; draft 11.5 m.

Type: Ship (hazmat cat C). MMSI: 538004019.

Date/timePositionNaut miles runAvg speedWind from/ knotsBaromVisibWave heightAir tempDewpointWater temp
2016-May-10 10:11N 12°55' W 018°21'1616.6
2016-May-10 09:14N 13°11' W 018°20'1417.0
2016-May-10 08:25N 13°25' W 018°19'11817.0
2016-May-10 01:26N 15°23' W 018°13'1416.1
2016-May-10 00:34N 15°37' W 018°12'  
2016-May-06 07:34N 35°58' W 005°32'7 0.4
2016-May-05 12:09N 36°02' W 005°24'6 9.6
2016-May-05 11:33N 36°07' W 005°25'1 0.1
2016-May-05 02:32N 36°08' W 005°25'0 0.0
2016-May-05 01:32N 36°08' W 005°25'0 0.0
2016-May-05 00:29N 36°08' W 005°25'1 1.1
2016-May-04 23:20N 36°08' W 005°24'3 3.6
2016-May-04 22:33N 36°06' W 005°22'4 4.2
2016-May-04 21:34N 36°05' W 005°17'21314.1
2016-May-04 06:29N 37°12' W 001°06'1515.8
2016-May-04 05:33N 37°22' W 000°52'1616.1
2016-May-04 04:33N 37°32' W 000°36'1615.8
2016-May-04 03:34N 37°45' W 000°25'1616.0
2016-May-04 02:34N 37°58' W 000°14'1615.6
2016-May-04 01:33N 38°12' W 000°03'1615.5
2016-May-04 00:33N 38°25' E 000°08'2116.0
2016-May-03 23:15N 38°42' E 000°22'4515.5
2016-May-03 20:21N 39°22' W 000°05'1114.0
2016-May-03 19:33N 39°26' W 000°18'1 1.5
2016-May-03 18:33N 39°27' W 000°19'0 0.0
2016-May-03 17:33N 39°27' W 000°19'0 0.0
2016-May-03 16:33N 39°27' W 000°19'0 0.0
2016-May-03 15:33N 39°27' W 000°19'0 0.0
2016-May-03 14:33N 39°27' W 000°19'0 0.0
2016-May-03 13:33N 39°27' W 000°19'0 0.0
2016-May-03 12:33N 39°27' W 000°19'0 0.0
2016-May-03 11:33N 39°27' W 000°19'0 0.0
2016-May-03 10:33N 39°27' W 000°19'0 0.0
2016-May-03 09:33N 39°27' W 000°19'0 0.0
2016-May-03 08:33N 39°27' W 000°19'0 0.0
2016-May-03 07:30N 39°27' W 000°19'0 0.0
2016-May-03 06:30N 39°27' W 000°19'0 0.0
2016-May-03 05:33N 39°27' W 000°19'0 0.0
2016-May-03 04:24N 39°27' W 000°19'0 0.4
2016-May-03 03:33N 39°27' W 000°19'5 4.1
2016-May-03 02:28N 39°23' W 000°16'0 0.0
2016-May-03 00:16N 39°23' W 000°16'0 0.0
2016-May-02 18:04N 39°23' W 000°16'0 0.0
2016-May-02 17:28N 39°23' W 000°16'0 0.0
2016-May-02 16:16N 39°23' W 000°16'0 0.0
2016-May-02 15:28N 39°23' W 000°16'0 0.0
2016-May-02 14:22N 39°23' W 000°16'0 0.0
2016-May-02 04:16N 39°23' W 000°16'0 0.0
2016-May-02 02:28N 39°23' W 000°16'0 0.0
2016-May-01 19:31N 39°23' W 000°16'0 0.0
2016-May-01 17:18N 39°23' W 000°16'0 0.0
2016-May-01 16:33N 39°23' W 000°16'0 0.0
2016-May-01 12:16N 39°23' W 000°16'1 0.2
2016-May-01 06:33N 39°23' W 000°14'7211.9
2016-May-01 00:31N 39°59' E 001°06'1614.2
2016-Apr-30 23:23N 40°12' E 001°18'4114.3
2016-Apr-30 20:33N 40°47' E 001°46'1514.3
2016-Apr-30 19:31N 40°59' E 001°57'  

Dump ship's entire track history